Montgomery, NY

5:35 PM EST on January 22, 2017 (GMT -0500)
Orange County

Weather History for KMGJ - December, 2011

Change the Weather History Date:

Monday, December 19, 2011

  Actual Average (KSWF) Record (KSWF)
Temperature  
Mean Temperature 29 °F -  
Max Temperature 43 °F 37 °F 60 °F (2011)
Min Temperature 15 °F 22 °F -3 °F (1973)
Degree Days  
Heating Degree Days 36    
Moisture  
Dew Point 22 °F    
Average Humidity 71    
Maximum Humidity 92    
Minimum Humidity 51    
Precipitation  
Precipitation 0.00 in - - ()
Sea Level Pressure  
Sea Level Pressure 30.09 in    
Wind  
Wind Speed 5 mph (SSW)    
Max Wind Speed 18 mph    
Max Gust Speed 28 mph    
Visibility 10 miles    
Events      
Averages and records for this station are not official NWS values.
T = Trace of Precipitation, MM = Missing Value Source: NWS Daily Summary

Daily Weather History Graph

Daily Weather History Graph

Search for Another Location

Airport or City:

Trip Planner

Search our weather history database for the weather conditions in past years. The results will help you decide how hot, cold, wet, or windy it might be!

Date:

Astronomy

Dec. 19, 2011 Rise Set
Actual Time 7:18 AM EST 4:29 PM EST
Civil Twilight 6:47 AM EST 5:00 PM EST
Nautical Twilight 6:12 AM EST 5:35 PM EST
Astronomical Twilight 5:38 AM EST 6:09 PM EST
Moon 1:23 AM EST (12/19) 12:28 PM EST (12/19)
Length of Visible Light 10h 13m
Length of Day
9h 10m
Waning Crescent, 31% of the Moon is Illuminated
Dec 19
Waning Crescent
Dec 24
New
Jan 1
First Quarter
Jan 9
Full
Jan 16
Last Quarter

Hourly Weather History & Observations

Time (EST) Temp. Windchill Dew Point Humidity Pressure Visibility Wind Dir Wind Speed Gust Speed Precip Events Conditions
12:54 AM 15.1 °F - 12.0 °F 88% 30.27 in 10.0 mi Calm Calm - N/A   Clear
1:54 AM 15.1 °F - 12.9 °F 91% 30.27 in 10.0 mi Calm Calm - N/A   Clear
2:54 AM 16.0 °F - 12.9 °F 88% 30.26 in 10.0 mi Calm Calm - N/A   Clear
3:54 AM 16.0 °F - 12.9 °F 88% 30.25 in 10.0 mi Calm Calm - N/A   Clear
4:54 AM 17.1 °F - 14.0 °F 88% 30.21 in 10.0 mi Calm Calm - N/A   Clear
5:54 AM 16.0 °F - 12.9 °F 88% 30.21 in 10.0 mi Calm Calm - N/A   Clear
6:54 AM 16.0 °F - 14.0 °F 92% 30.21 in 10.0 mi Calm Calm - N/A   Clear
7:54 AM 18.0 °F - 15.1 °F 88% 30.18 in 10.0 mi Calm Calm - N/A   Partly Cloudy
8:54 AM 25.0 °F 18.1 °F 19.9 °F 81% 30.17 in 10.0 mi SSW 5.8 mph - N/A   Overcast
9:54 AM 30.9 °F 22.8 °F 24.1 °F 76% 30.15 in 10.0 mi SSW 9.2 mph - N/A   Clear
10:54 AM 35.1 °F 24.8 °F 25.0 °F 67% 30.11 in 10.0 mi SW 17.3 mph 26.5 mph N/A   Clear
11:54 AM 39.9 °F 30.8 °F 25.0 °F 55% 30.05 in 10.0 mi SW 18.4 mph 27.6 mph N/A   Clear
12:54 PM 42.1 °F 34.2 °F 25.0 °F 51% 30.03 in 10.0 mi SSW 16.1 mph 25.3 mph N/A   Clear
1:54 PM 41.0 °F 32.8 °F 25.0 °F 53% 29.98 in 10.0 mi SSW 16.1 mph 24.2 mph N/A   Scattered Clouds
2:54 PM 43.0 °F 36.4 °F 26.1 °F 51% 29.96 in 10.0 mi SW 12.7 mph 21.9 mph N/A   Overcast
3:54 PM 43.0 °F 36.0 °F 26.1 °F 51% 29.95 in 10.0 mi SW 13.8 mph 23.0 mph N/A   Overcast
4:54 PM 43.0 °F 36.8 °F 27.0 °F 53% 29.96 in 10.0 mi SW 11.5 mph - 0.00 in   Overcast
5:54 PM 42.1 °F 38.4 °F 27.0 °F 55% 29.96 in 10.0 mi SSW 5.8 mph - N/A   Overcast
6:54 PM 41.0 °F 37.1 °F 27.0 °F 57% 29.96 in 10.0 mi SW 5.8 mph - N/A   Overcast
9:54 PM 41.0 °F 36.4 °F 30.0 °F 65% 29.95 in 10.0 mi SSW 6.9 mph - N/A   Overcast
10:54 PM 42.1 °F 38.4 °F 30.9 °F 65% 29.94 in 10.0 mi SSW 5.8 mph - N/A   Overcast
11:54 PM 41.0 °F 35.8 °F 32.0 °F 70% 29.93 in 10.0 mi SW 8.1 mph - N/A   Overcast